Regional Weather Roundup
Issued by NWS Sioux Falls, SD

Home | Current Version | Previous Version | Text Only | Print | Product List | Glossary On
Versions: 1 2 3 4 5 6 7 8 9 10 11 12 13 14 15 16 17 18 19 20 21 22 23 24 25 26 27 28 29 30 31 32 33 34 35 36 37 38 39 40 41 42 43 44 45 46 47 48 49 50
000
ASUS43 KFSD 252202
RWRFSD

WEATHER ROUNDUP FOR SE SOUTH DAKOTA/SW MINNESOTA/NW IOWA
NATIONAL WEATHER SERVICE SIOUX FALLS SD
400 PM CST TUE NOV 25 2014

NOTE: "FAIR" INDICATES FEW OR NO CLOUDS BELOW 12,000 FEET WITH NO
SIGNIFICANT WEATHER AND OR OBSTRUCTIONS TO VISIBILITY.


SDZ038>040-050-052>070-252300-
SOUTHEAST SOUTH DAKOTA

CITY           SKY/WX    TMP DP  RH WIND       PRES   REMARKS
CHAMBERLAIN    NOT AVBL
HURON          CLOUDY    36  26  67 SE8       29.82S
MADISON        FAIR      32  25  74 SE12      29.85F WCI  23
MITCHELL       CLOUDY    39  27  62 SE10      29.83S
SIOUX FALLS    CLOUDY    36  23  59 SE9       29.88F
WINNER         CLOUDY    44  23  43 SW9       29.76F
YANKTON        CLOUDY    43  27  52 S10       29.87S
$$

MNZ071-072-080-081-089-090-097-098-252300-
SOUTHWEST MINNESOTA

CITY           SKY/WX    TMP DP  RH WIND       PRES   REMARKS
FAIRMONT       MOCLDY    30   9  40 S13       29.98S WCI  20
JACKSON        PTCLDY    32  14  47 S10       29.95S WCI  24
LUVERNE        MOCLDY    34  21  60 S8        29.91S WCI  27
MARSHALL       MOCLDY    32  18  55 S9        29.92S WCI  24
MONTEVIDEO     CLOUDY    28  21  74 S10       29.94S WCI  19
PIPESTONE      MOCLDY    32  21  64 S10       29.88S WCI  24
REDWOOD FALLS  CLOUDY    32  19  58 SE10      29.96F WCI  24
TRACY          MOCLDY    33  20  59 S10       29.92F WCI  25
WINDOM         PTCLDY    34  16  47 S8        29.94S WCI  27
WORTHINGTON    PTCLDY    34  16  47 S13       29.93S WCI  25
$$

IAZ001>003-012>014-020>022-031-032-NEZ013-014-SDZ071-252300-
NORTHWEST IOWA

CITY           SKY/WX    TMP DP  RH WIND       PRES   REMARKS
DENISON        PTCLDY    37  18  44 S10       29.96F
ESTHERVILLE    PTCLDY    31  10  41 S14       29.96F WCI  21
SIOUX CITY     CLOUDY    41  25  53 S14       29.93F
SPENCER        PTCLDY    34  16  47 SE14      29.96S WCI  25
$$

ABBREVIATIONS USED IN REMARKS
   TC - TEMPERATURE IN CELSIUS
  WCI - WIND CHILL INDEX
   HX - HEAT INDEX
  VSB - VISIBILITY



USA.gov is the U.S. government's official web portal to all federal, state and local government web resources and services.